Notices

What's New in latest Release from April 7th, 2021:

- Updated Glossary, including Speed of Maximum Gust, and Total Hourly Precipitation

- Updated national and regional climate services offices contacts and prices information

- Addition of station inventory lists for 1981-2010, 1971-2000, and 1961-1990 Normals.

If you haven't already, please take our survey and provide feedback about our website: https://eccc.sondage-survey.ca/f/LanguageSelection.aspx?s=442ca660-fcf1-47c0-95a9-59707d6fd709

Hourly Data Report for March 19, 2021

OTTAWA INTL A
ONTARIO
Current Station Operator: NAVCAN

45°19'00.000" N
75°40'00.000" W
114.90 m
6106001
71628
YOW

Download Data

Hourly Data (March 2021)
Hourly Data Report for March 19, 2021
TIME
LST
Temp Definition
°C
Dew Point Definition
°C
Rel Hum Definition
%
Precip. Amount Definition
mm

Wind Dir Definition
10's deg

Wind Spd Definition
km/h
Visibility Definition
km
Stn Press Definition
kPa
Hmdx Definition


Wind Chill Definition


Weather Definition


00:00 -5.5 -17.2 40   3 27 24.1 101.19   -13 LegendNANA
01:00 -6.3 -17.6 41   2 22 24.1 101.25   -14 Clear
02:00 -6.9 -17.2 44   36 18 24.1 101.30   -14 LegendNANA
03:00 -7.5 -16.9 47   1 15 24.1 101.34   -14 LegendNANA
04:00 -8.0 -17.2 48   36 16 24.1 101.43   -15 Clear
05:00 -8.5 -17.3 49   36 19 24.1 101.55   -16 LegendNANA
06:00 -9.0 -16.5 55   36 13 24.1 101.67   -15 LegendNANA
07:00 -8.5 -17.2 50   35 20 24.1 101.80   -16 Clear
08:00 -7.7 -17.0 48   34 18 24.1 101.90   -15 LegendNANA
09:00 -6.7 -17.2 44   1 16 24.1 101.94   -13 LegendNANA
10:00 -5.6 -17.6 39   34 15 24.1 101.92   -11 Clear
11:00 -3.7 -16.9 36   32 17 24.1 101.89   -9 LegendNANA
12:00 -2.4 -15.0 38   31 16 24.1 101.85   -8 LegendNANA
13:00 -2.2 -17.2 31   29 14 24.1 101.77   -7 Clear
14:00 -0.7 -15.8 31   29 14 24.1 101.67   -5 LegendNANA
15:00 0.0 -14.4 33   27 14 24.1 101.61   -4 LegendNANA
16:00 0.5 -13.6 34   25 14 24.1 101.55     Clear
17:00 0.8 -13.0 35   26 12 24.1 101.50     LegendNANA
18:00 0.0 -12.0 40   23 7 24.1 101.49   -2 LegendNANA
19:00 -0.5 -12.7 39   16 7 24.1 101.50   -3 Mostly Cloudy
20:00 -1.1 -12.1 43   18 9 24.1 101.53   -4 LegendNANA
21:00 -1.2 -10.8 48   19 14 24.1 101.54   -6 LegendNANA
22:00 -1.9 -9.0 58   21 15 24.1 101.54   -7 Clear
23:00 -2.1 -8.5 62   21 18 24.1 101.54   -8 LegendNANA

Notes on Data Quality.

Legend

  • E = Estimated
  • M = Missing
  • NA = Not Available*
  • [empty] = Indicates an unobserved value
Date modified: